owner,sensor,date,latitude,longitude,vertical_datum,sea_water_practical_salinity,qcFlag 
ENP,ioos.station.NOAA.NDBC:JKYF1:1,2019-05-01T00:00:00Z,25.0530,-80.9040,1.5,39.67,11111222 
ENP,ioos.station.NOAA.NDBC:JKYF1:1,2019-05-01T01:00:00Z,25.0530,-80.9040,1.5,39.75,11111222 
ENP,ioos.station.NOAA.NDBC:JKYF1:1,2019-05-01T02:00:00Z,25.0530,-80.9040,1.5,39.87,11111222 
ENP,ioos.station.NOAA.NDBC:JKYF1:1,2019-05-01T03:00:00Z,25.0530,-80.9040,1.5,40.0,11111222 
ENP,ioos.station.NOAA.NDBC:JKYF1:1,2019-05-01T04:00:00Z,25.0530,-80.9040,1.5,40.05,11111222 
ENP,ioos.station.NOAA.NDBC:JKYF1:1,2019-05-01T05:00:00Z,25.0530,-80.9040,1.5,40.1,11111222 
ENP,ioos.station.NOAA.NDBC:JKYF1:1,2019-05-01T09:00:00Z,25.0530,-80.9040,1.5,39.58,11111222 
ENP,ioos.station.NOAA.NDBC:JKYF1:1,2019-05-01T10:00:00Z,25.0530,-80.9040,1.5,39.91,11111222 
ENP,ioos.station.NOAA.NDBC:JKYF1:1,2019-05-01T11:00:00Z,25.0530,-80.9040,1.5,40.0,11111222 
ENP,ioos.station.NOAA.NDBC:JKYF1:1,2019-05-01T12:00:00Z,25.0530,-80.9040,1.5,40.14,11111222 
ENP,ioos.station.NOAA.NDBC:JKYF1:1,2019-05-01T13:00:00Z,25.0530,-80.9040,1.5,40.18,11111222 
ENP,ioos.station.NOAA.NDBC:JKYF1:1,2019-05-01T14:00:00Z,25.0530,-80.9040,1.5,40.18,11111222 
ENP,ioos.station.NOAA.NDBC:JKYF1:1,2019-05-01T15:00:00Z,25.0530,-80.9040,1.5,40.12,11111222 
ENP,ioos.station.NOAA.NDBC:JKYF1:1,2019-05-01T16:00:00Z,25.0530,-80.9040,1.5,40.1,11111222 
ENP,ioos.station.NOAA.NDBC:JKYF1:1,2019-05-01T17:00:00Z,25.0530,-80.9040,1.5,40.1,11111222 
ENP,ioos.station.NOAA.NDBC:JKYF1:1,2019-05-01T18:00:00Z,25.0530,-80.9040,1.5,39.44,11111222 
ENP,ioos.station.NOAA.NDBC:JKYF1:1,2019-05-01T19:00:00Z,25.0530,-80.9040,1.5,38.59,11111222 
ENP,ioos.station.NOAA.NDBC:JKYF1:1,2019-05-01T20:00:00Z,25.0530,-80.9040,1.5,38.45,11111222 
ENP,ioos.station.NOAA.NDBC:JKYF1:1,2019-05-01T21:00:00Z,25.0530,-80.9040,1.5,39.29,11111222 
ENP,ioos.station.NOAA.NDBC:JKYF1:1,2019-05-01T22:00:00Z,25.0530,-80.9040,1.5,39.36,11111222 
ENP,ioos.station.NOAA.NDBC:JKYF1:1,2019-05-01T23:00:00Z,25.0530,-80.9040,1.5,39.63,11111222 
ENP,ioos.station.NOAA.NDBC:JKYF1:1,2019-05-02T00:00:00Z,25.0530,-80.9040,1.5,40.02,11111222 
ENP,ioos.station.NOAA.NDBC:JKYF1:1,2019-05-02T01:00:00Z,25.0530,-80.9040,1.5,40.35,11111222 
ENP,ioos.station.NOAA.NDBC:JKYF1:1,2019-05-02T02:00:00Z,25.0530,-80.9040,1.5,40.55,11111222 
ENP,ioos.station.NOAA.NDBC:JKYF1:1,2019-05-02T03:00:00Z,25.0530,-80.9040,1.5,40.6,11133222 
ENP,ioos.station.NOAA.NDBC:JKYF1:1,2019-05-02T04:00:00Z,25.0530,-80.9040,1.5,40.7,11111222 
ENP,ioos.station.NOAA.NDBC:JKYF1:1,2019-05-02T05:00:00Z,25.0530,-80.9040,1.5,40.68,11111222 
ENP,ioos.station.NOAA.NDBC:JKYF1:1,2019-05-02T07:00:00Z,25.0530,-80.9040,1.5,38.8,11111222 
ENP,ioos.station.NOAA.NDBC:JKYF1:1,2019-05-02T08:00:00Z,25.0530,-80.9040,1.5,38.62,11111222 
ENP,ioos.station.NOAA.NDBC:JKYF1:1,2019-05-02T09:00:00Z,25.0530,-80.9040,1.5,38.62,11111222 
ENP,ioos.station.NOAA.NDBC:JKYF1:1,2019-05-02T10:00:00Z,25.0530,-80.9040,1.5,38.64,11111222 
ENP,ioos.station.NOAA.NDBC:JKYF1:1,2019-05-02T11:00:00Z,25.0530,-80.9040,1.5,38.67,11111222 
ENP,ioos.station.NOAA.NDBC:JKYF1:1,2019-05-02T12:00:00Z,25.0530,-80.9040,1.5,38.72,11111222 
ENP,ioos.station.NOAA.NDBC:JKYF1:1,2019-05-02T13:00:00Z,25.0530,-80.9040,1.5,38.84,11111222 
ENP,ioos.station.NOAA.NDBC:JKYF1:1,2019-05-02T14:00:00Z,25.0530,-80.9040,1.5,38.92,11111222 
ENP,ioos.station.NOAA.NDBC:JKYF1:1,2019-05-02T15:00:00Z,25.0530,-80.9040,1.5,38.95,11111222 
ENP,ioos.station.NOAA.NDBC:JKYF1:1,2019-05-02T16:00:00Z,25.0530,-80.9040,1.5,38.87,11111222 
ENP,ioos.station.NOAA.NDBC:JKYF1:1,2019-05-02T17:00:00Z,25.0530,-80.9040,1.5,38.73,11111222 
ENP,ioos.station.NOAA.NDBC:JKYF1:1,2019-05-02T18:00:00Z,25.0530,-80.9040,1.5,38.6,11111222 
ENP,ioos.station.NOAA.NDBC:JKYF1:1,2019-05-02T19:00:00Z,25.0530,-80.9040,1.5,38.78,11111222 
ENP,ioos.station.NOAA.NDBC:JKYF1:1,2019-05-02T20:00:00Z,25.0530,-80.9040,1.5,38.88,11111222 
ENP,ioos.station.NOAA.NDBC:JKYF1:1,2019-05-02T21:00:00Z,25.0530,-80.9040,1.5,38.9,11111222 
ENP,ioos.station.NOAA.NDBC:JKYF1:1,2019-05-02T22:00:00Z,25.0530,-80.9040,1.5,38.82,11111222 
ENP,ioos.station.NOAA.NDBC:JKYF1:1,2019-05-02T23:00:00Z,25.0530,-80.9040,1.5,38.8,11111222 
ENP,ioos.station.NOAA.NDBC:JKYF1:1,2019-05-03T00:00:00Z,25.0530,-80.9040,1.5,38.8,11111222 
ENP,ioos.station.NOAA.NDBC:JKYF1:1,2019-05-03T01:00:00Z,25.0530,-80.9040,1.5,38.78,11111222 
ENP,ioos.station.NOAA.NDBC:JKYF1:1,2019-05-03T02:00:00Z,25.0530,-80.9040,1.5,38.78,11111222 
ENP,ioos.station.NOAA.NDBC:JKYF1:1,2019-05-03T03:00:00Z,25.0530,-80.9040,1.5,38.8,11111222 
ENP,ioos.station.NOAA.NDBC:JKYF1:1,2019-05-03T04:00:00Z,25.0530,-80.9040,1.5,38.86,11111222 
ENP,ioos.station.NOAA.NDBC:JKYF1:1,2019-05-03T05:00:00Z,25.0530,-80.9040,1.5,38.88,11111222 
ENP,ioos.station.NOAA.NDBC:JKYF1:1,2019-05-03T10:00:00Z,25.0530,-80.9040,1.5,39.3,11111222 
ENP,ioos.station.NOAA.NDBC:JKYF1:1,2019-05-03T11:00:00Z,25.0530,-80.9040,1.5,39.2,11111222 
ENP,ioos.station.NOAA.NDBC:JKYF1:1,2019-05-03T12:00:00Z,25.0530,-80.9040,1.5,39.14,11111222 
ENP,ioos.station.NOAA.NDBC:JKYF1:1,2019-05-03T13:00:00Z,25.0530,-80.9040,1.5,39.12,11111222 
ENP,ioos.station.NOAA.NDBC:JKYF1:1,2019-05-03T14:00:00Z,25.0530,-80.9040,1.5,39.1,11111222 
ENP,ioos.station.NOAA.NDBC:JKYF1:1,2019-05-03T15:00:00Z,25.0530,-80.9040,1.5,39.1,11111222 
ENP,ioos.station.NOAA.NDBC:JKYF1:1,2019-05-03T16:00:00Z,25.0530,-80.9040,1.5,39.11,11111222 
ENP,ioos.station.NOAA.NDBC:JKYF1:1,2019-05-03T17:00:00Z,25.0530,-80.9040,1.5,39.12,11111222 
ENP,ioos.station.NOAA.NDBC:JKYF1:1,2019-05-03T18:00:00Z,25.0530,-80.9040,1.5,39.2,11111222 
ENP,ioos.station.NOAA.NDBC:JKYF1:1,2019-05-03T19:00:00Z,25.0530,-80.9040,1.5,39.32,11111222 
ENP,ioos.station.NOAA.NDBC:JKYF1:1,2019-05-03T20:00:00Z,25.0530,-80.9040,1.5,39.27,11111222 
ENP,ioos.station.NOAA.NDBC:JKYF1:1,2019-05-03T21:00:00Z,25.0530,-80.9040,1.5,39.14,11111222 
ENP,ioos.station.NOAA.NDBC:JKYF1:1,2019-05-03T22:00:00Z,25.0530,-80.9040,1.5,39.13,11111222 
ENP,ioos.station.NOAA.NDBC:JKYF1:1,2019-05-03T23:00:00Z,25.0530,-80.9040,1.5,39.2,11111222 
ENP,ioos.station.NOAA.NDBC:JKYF1:1,2019-05-04T00:00:00Z,25.0530,-80.9040,1.5,39.32,11111222 
ENP,ioos.station.NOAA.NDBC:JKYF1:1,2019-05-04T01:00:00Z,25.0530,-80.9040,1.5,39.38,11111222 
ENP,ioos.station.NOAA.NDBC:JKYF1:1,2019-05-04T02:00:00Z,25.0530,-80.9040,1.5,39.34,11111222 
ENP,ioos.station.NOAA.NDBC:JKYF1:1,2019-05-04T03:00:00Z,25.0530,-80.9040,1.5,39.4,11111222 
ENP,ioos.station.NOAA.NDBC:JKYF1:1,2019-05-04T04:00:00Z,25.0530,-80.9040,1.5,39.41,11111222 
ENP,ioos.station.NOAA.NDBC:JKYF1:1,2019-05-04T05:00:00Z,25.0530,-80.9040,1.5,39.41,11111222 
ENP,ioos.station.NOAA.NDBC:JKYF1:1,2019-05-04T06:00:00Z,25.0530,-80.9040,1.5,39.44,11111222 
ENP,ioos.station.NOAA.NDBC:JKYF1:1,2019-05-04T07:00:00Z,25.0530,-80.9040,1.5,39.5,11111222 
ENP,ioos.station.NOAA.NDBC:JKYF1:1,2019-05-04T08:00:00Z,25.0530,-80.9040,1.5,39.5,11111222 
ENP,ioos.station.NOAA.NDBC:JKYF1:1,2019-05-04T09:00:00Z,25.0530,-80.9040,1.5,39.41,11111222 
ENP,ioos.station.NOAA.NDBC:JKYF1:1,2019-05-04T10:00:00Z,25.0530,-80.9040,1.5,39.31,11111222 
ENP,ioos.station.NOAA.NDBC:JKYF1:1,2019-05-04T11:00:00Z,25.0530,-80.9040,1.5,39.34,11111222 
ENP,ioos.station.NOAA.NDBC:JKYF1:1,2019-05-04T12:00:00Z,25.0530,-80.9040,1.5,39.46,11111222 
ENP,ioos.station.NOAA.NDBC:JKYF1:1,2019-05-04T13:00:00Z,25.0530,-80.9040,1.5,39.54,11111222 
ENP,ioos.station.NOAA.NDBC:JKYF1:1,2019-05-04T14:00:00Z,25.0530,-80.9040,1.5,39.58,11111222 
ENP,ioos.station.NOAA.NDBC:JKYF1:1,2019-05-04T15:00:00Z,25.0530,-80.9040,1.5,39.53,11111222 
ENP,ioos.station.NOAA.NDBC:JKYF1:1,2019-05-04T16:00:00Z,25.0530,-80.9040,1.5,39.54,11111222 
ENP,ioos.station.NOAA.NDBC:JKYF1:1,2019-05-04T17:00:00Z,25.0530,-80.9040,1.5,39.54,11111222 
ENP,ioos.station.NOAA.NDBC:JKYF1:1,2019-05-04T19:00:00Z,25.0530,-80.9040,1.5,39.5,11111222 
ENP,ioos.station.NOAA.NDBC:JKYF1:1,2019-05-04T20:00:00Z,25.0530,-80.9040,1.5,39.21,11111222 
ENP,ioos.station.NOAA.NDBC:JKYF1:1,2019-05-04T21:00:00Z,25.0530,-80.9040,1.5,39.02,11111222 
ENP,ioos.station.NOAA.NDBC:JKYF1:1,2019-05-04T22:00:00Z,25.0530,-80.9040,1.5,39.0,11111222 
ENP,ioos.station.NOAA.NDBC:JKYF1:1,2019-05-04T23:00:00Z,25.0530,-80.9040,1.5,39.03,11111222 
ENP,ioos.station.NOAA.NDBC:JKYF1:1,2019-05-05T00:00:00Z,25.0530,-80.9040,1.5,39.07,11111222 
ENP,ioos.station.NOAA.NDBC:JKYF1:1,2019-05-05T01:00:00Z,25.0530,-80.9040,1.5,39.14,11111222 
ENP,ioos.station.NOAA.NDBC:JKYF1:1,2019-05-05T02:00:00Z,25.0530,-80.9040,1.5,39.38,11111222 
ENP,ioos.station.NOAA.NDBC:JKYF1:1,2019-05-05T03:00:00Z,25.0530,-80.9040,1.5,39.5,11111222 
ENP,ioos.station.NOAA.NDBC:JKYF1:1,2019-05-05T04:00:00Z,25.0530,-80.9040,1.5,39.55,11111222 
ENP,ioos.station.NOAA.NDBC:JKYF1:1,2019-05-05T05:00:00Z,25.0530,-80.9040,1.5,39.59,11111222 
ENP,ioos.station.NOAA.NDBC:JKYF1:1,2019-05-05T06:00:00Z,25.0530,-80.9040,1.5,39.59,11111222 
ENP,ioos.station.NOAA.NDBC:JKYF1:1,2019-05-05T07:00:00Z,25.0530,-80.9040,1.5,39.66,11111222 
ENP,ioos.station.NOAA.NDBC:JKYF1:1,2019-05-05T08:00:00Z,25.0530,-80.9040,1.5,39.47,11111222 
ENP,ioos.station.NOAA.NDBC:JKYF1:1,2019-05-05T09:00:00Z,25.0530,-80.9040,1.5,39.15,11111222 
ENP,ioos.station.NOAA.NDBC:JKYF1:1,2019-05-05T10:00:00Z,25.0530,-80.9040,1.5,39.03,11111222 
ENP,ioos.station.NOAA.NDBC:JKYF1:1,2019-05-05T11:00:00Z,25.0530,-80.9040,1.5,38.99,11111222 
ENP,ioos.station.NOAA.NDBC:JKYF1:1,2019-05-05T12:00:00Z,25.0530,-80.9040,1.5,39.03,11111222 
ENP,ioos.station.NOAA.NDBC:JKYF1:1,2019-05-05T13:00:00Z,25.0530,-80.9040,1.5,39.16,11111222 
ENP,ioos.station.NOAA.NDBC:JKYF1:1,2019-05-05T14:00:00Z,25.0530,-80.9040,1.5,39.29,11111222 
ENP,ioos.station.NOAA.NDBC:JKYF1:1,2019-05-05T15:00:00Z,25.0530,-80.9040,1.5,39.33,11111222 
ENP,ioos.station.NOAA.NDBC:JKYF1:1,2019-05-05T16:00:00Z,25.0530,-80.9040,1.5,39.33,11111222 
ENP,ioos.station.NOAA.NDBC:JKYF1:1,2019-05-05T17:00:00Z,25.0530,-80.9040,1.5,39.31,11111222 
ENP,ioos.station.NOAA.NDBC:JKYF1:1,2019-05-05T19:00:00Z,25.0530,-80.9040,1.5,39.0,11111222 
ENP,ioos.station.NOAA.NDBC:JKYF1:1,2019-05-05T20:00:00Z,25.0530,-80.9040,1.5,38.87,11111222 
ENP,ioos.station.NOAA.NDBC:JKYF1:1,2019-05-05T21:00:00Z,25.0530,-80.9040,1.5,38.87,11111222 
ENP,ioos.station.NOAA.NDBC:JKYF1:1,2019-05-05T22:00:00Z,25.0530,-80.9040,1.5,38.87,11111222 
ENP,ioos.station.NOAA.NDBC:JKYF1:1,2019-05-05T23:00:00Z,25.0530,-80.9040,1.5,38.92,11111222 
ENP,ioos.station.NOAA.NDBC:JKYF1:1,2019-05-06T00:00:00Z,25.0530,-80.9040,1.5,38.96,11111222 
ENP,ioos.station.NOAA.NDBC:JKYF1:1,2019-05-06T01:00:00Z,25.0530,-80.9040,1.5,39.02,11111222 
ENP,ioos.station.NOAA.NDBC:JKYF1:1,2019-05-06T02:00:00Z,25.0530,-80.9040,1.5,39.02,11111222 
ENP,ioos.station.NOAA.NDBC:JKYF1:1,2019-05-06T03:00:00Z,25.0530,-80.9040,1.5,39.1,11111222 
ENP,ioos.station.NOAA.NDBC:JKYF1:1,2019-05-06T04:00:00Z,25.0530,-80.9040,1.5,39.04,11111222 
ENP,ioos.station.NOAA.NDBC:JKYF1:1,2019-05-06T05:00:00Z,25.0530,-80.9040,1.5,39.07,11111222 
ENP,ioos.station.NOAA.NDBC:JKYF1:1,2019-05-06T06:00:00Z,25.0530,-80.9040,1.5,39.06,11111222 
ENP,ioos.station.NOAA.NDBC:JKYF1:1,2019-05-06T07:00:00Z,25.0530,-80.9040,1.5,39.1,11111222 
ENP,ioos.station.NOAA.NDBC:JKYF1:1,2019-05-06T08:00:00Z,25.0530,-80.9040,1.5,39.14,11111222 
ENP,ioos.station.NOAA.NDBC:JKYF1:1,2019-05-06T09:00:00Z,25.0530,-80.9040,1.5,39.11,11111222 
ENP,ioos.station.NOAA.NDBC:JKYF1:1,2019-05-06T10:00:00Z,25.0530,-80.9040,1.5,39.03,11111222 
ENP,ioos.station.NOAA.NDBC:JKYF1:1,2019-05-06T11:00:00Z,25.0530,-80.9040,1.5,39.06,11111222 
ENP,ioos.station.NOAA.NDBC:JKYF1:1,2019-05-06T12:00:00Z,25.0530,-80.9040,1.5,39.06,11111222 
ENP,ioos.station.NOAA.NDBC:JKYF1:1,2019-05-06T13:00:00Z,25.0530,-80.9040,1.5,39.13,11111222 
ENP,ioos.station.NOAA.NDBC:JKYF1:1,2019-05-06T14:00:00Z,25.0530,-80.9040,1.5,39.13,11111222 
ENP,ioos.station.NOAA.NDBC:JKYF1:1,2019-05-06T15:00:00Z,25.0530,-80.9040,1.5,39.08,11111222 
ENP,ioos.station.NOAA.NDBC:JKYF1:1,2019-05-06T16:00:00Z,25.0530,-80.9040,1.5,39.06,11111222 
ENP,ioos.station.NOAA.NDBC:JKYF1:1,2019-05-06T17:00:00Z,25.0530,-80.9040,1.5,39.04,11111222 
ENP,ioos.station.NOAA.NDBC:JKYF1:1,2019-05-06T18:00:00Z,25.0530,-80.9040,1.5,39.05,11111222 
ENP,ioos.station.NOAA.NDBC:JKYF1:1,2019-05-06T19:00:00Z,25.0530,-80.9040,1.5,39.01,11111222 
ENP,ioos.station.NOAA.NDBC:JKYF1:1,2019-05-06T20:00:00Z,25.0530,-80.9040,1.5,38.85,11111222 
ENP,ioos.station.NOAA.NDBC:JKYF1:1,2019-05-06T21:00:00Z,25.0530,-80.9040,1.5,38.66,11111222 
ENP,ioos.station.NOAA.NDBC:JKYF1:1,2019-05-06T22:00:00Z,25.0530,-80.9040,1.5,38.61,11111222 
ENP,ioos.station.NOAA.NDBC:JKYF1:1,2019-05-06T23:00:00Z,25.0530,-80.9040,1.5,38.61,11111222 
ENP,ioos.station.NOAA.NDBC:JKYF1:1,2019-05-07T00:00:00Z,25.0530,-80.9040,1.5,38.75,11111222 
ENP,ioos.station.NOAA.NDBC:JKYF1:1,2019-05-07T01:00:00Z,25.0530,-80.9040,1.5,39.0,11111222 
ENP,ioos.station.NOAA.NDBC:JKYF1:1,2019-05-07T02:00:00Z,25.0530,-80.9040,1.5,39.02,11111222 
ENP,ioos.station.NOAA.NDBC:JKYF1:1,2019-05-07T03:00:00Z,25.0530,-80.9040,1.5,39.1,11111222 
ENP,ioos.station.NOAA.NDBC:JKYF1:1,2019-05-07T04:00:00Z,25.0530,-80.9040,1.5,39.09,11111222 
ENP,ioos.station.NOAA.NDBC:JKYF1:1,2019-05-07T05:00:00Z,25.0530,-80.9040,1.5,39.13,11111222 
ENP,ioos.station.NOAA.NDBC:JKYF1:1,2019-05-07T06:00:00Z,25.0530,-80.9040,1.5,39.17,11111222 
ENP,ioos.station.NOAA.NDBC:JKYF1:1,2019-05-07T07:00:00Z,25.0530,-80.9040,1.5,39.24,11111222 
ENP,ioos.station.NOAA.NDBC:JKYF1:1,2019-05-07T08:00:00Z,25.0530,-80.9040,1.5,39.27,11111222 
ENP,ioos.station.NOAA.NDBC:JKYF1:1,2019-05-07T09:00:00Z,25.0530,-80.9040,1.5,39.25,11111222 
ENP,ioos.station.NOAA.NDBC:JKYF1:1,2019-05-07T10:00:00Z,25.0530,-80.9040,1.5,39.17,11111222 
ENP,ioos.station.NOAA.NDBC:JKYF1:1,2019-05-07T11:00:00Z,25.0530,-80.9040,1.5,38.96,11111222 
ENP,ioos.station.NOAA.NDBC:JKYF1:1,2019-05-07T12:00:00Z,25.0530,-80.9040,1.5,38.93,11111222 
ENP,ioos.station.NOAA.NDBC:JKYF1:1,2019-05-07T13:00:00Z,25.0530,-80.9040,1.5,38.93,11111222 
ENP,ioos.station.NOAA.NDBC:JKYF1:1,2019-05-07T14:00:00Z,25.0530,-80.9040,1.5,38.97,11111222 
ENP,ioos.station.NOAA.NDBC:JKYF1:1,2019-05-07T15:00:00Z,25.0530,-80.9040,1.5,39.04,11111222 
ENP,ioos.station.NOAA.NDBC:JKYF1:1,2019-05-07T16:00:00Z,25.0530,-80.9040,1.5,39.08,11111222 
ENP,ioos.station.NOAA.NDBC:JKYF1:1,2019-05-07T17:00:00Z,25.0530,-80.9040,1.5,38.69,11111222 
ENP,ioos.station.NOAA.NDBC:JKYF1:1,2019-05-07T18:00:00Z,25.0530,-80.9040,1.5,38.68,11111222 
ENP,ioos.station.NOAA.NDBC:JKYF1:1,2019-05-07T19:00:00Z,25.0530,-80.9040,1.5,38.52,11111222 
ENP,ioos.station.NOAA.NDBC:JKYF1:1,2019-05-07T20:00:00Z,25.0530,-80.9040,1.5,37.21,11111222 
ENP,ioos.station.NOAA.NDBC:JKYF1:1,2019-05-07T21:00:00Z,25.0530,-80.9040,1.5,37.5,11111222 
ENP,ioos.station.NOAA.NDBC:JKYF1:1,2019-05-07T22:00:00Z,25.0530,-80.9040,1.5,37.59,11111222 
ENP,ioos.station.NOAA.NDBC:JKYF1:1,2019-05-07T23:00:00Z,25.0530,-80.9040,1.5,37.6,11111222 
ENP,ioos.station.NOAA.NDBC:JKYF1:1,2019-05-08T00:00:00Z,25.0530,-80.9040,1.5,37.6,11111222 
ENP,ioos.station.NOAA.NDBC:JKYF1:1,2019-05-08T01:00:00Z,25.0530,-80.9040,1.5,37.55,11111222 
ENP,ioos.station.NOAA.NDBC:JKYF1:1,2019-05-08T02:00:00Z,25.0530,-80.9040,1.5,37.5,11111222 
ENP,ioos.station.NOAA.NDBC:JKYF1:1,2019-05-08T03:00:00Z,25.0530,-80.9040,1.5,37.5,11111222 
ENP,ioos.station.NOAA.NDBC:JKYF1:1,2019-05-08T04:00:00Z,25.0530,-80.9040,1.5,37.43,11111222 
ENP,ioos.station.NOAA.NDBC:JKYF1:1,2019-05-08T05:00:00Z,25.0530,-80.9040,1.5,37.41,11111222 
ENP,ioos.station.NOAA.NDBC:JKYF1:1,2019-05-08T06:00:00Z,25.0530,-80.9040,1.5,37.41,11111222 
ENP,ioos.station.NOAA.NDBC:JKYF1:1,2019-05-08T07:00:00Z,25.0530,-80.9040,1.5,37.37,11111222 
ENP,ioos.station.NOAA.NDBC:JKYF1:1,2019-05-08T08:00:00Z,25.0530,-80.9040,1.5,37.37,11111222 
ENP,ioos.station.NOAA.NDBC:JKYF1:1,2019-05-08T09:00:00Z,25.0530,-80.9040,1.5,37.38,11111222 
ENP,ioos.station.NOAA.NDBC:JKYF1:1,2019-05-08T10:00:00Z,25.0530,-80.9040,1.5,37.53,11111222 
ENP,ioos.station.NOAA.NDBC:JKYF1:1,2019-05-08T11:00:00Z,25.0530,-80.9040,1.5,37.6,11111222 
ENP,ioos.station.NOAA.NDBC:JKYF1:1,2019-05-08T12:00:00Z,25.0530,-80.9040,1.5,37.74,11111222 
ENP,ioos.station.NOAA.NDBC:JKYF1:1,2019-05-08T13:00:00Z,25.0530,-80.9040,1.5,37.83,11111222 
ENP,ioos.station.NOAA.NDBC:JKYF1:1,2019-05-08T14:00:00Z,25.0530,-80.9040,1.5,37.91,11111222 
ENP,ioos.station.NOAA.NDBC:JKYF1:1,2019-05-08T15:00:00Z,25.0530,-80.9040,1.5,37.92,11111222 
ENP,ioos.station.NOAA.NDBC:JKYF1:1,2019-05-08T16:00:00Z,25.0530,-80.9040,1.5,37.93,11111222 
ENP,ioos.station.NOAA.NDBC:JKYF1:1,2019-05-08T17:00:00Z,25.0530,-80.9040,1.5,37.89,11111222 
ENP,ioos.station.NOAA.NDBC:JKYF1:1,2019-05-08T18:00:00Z,25.0530,-80.9040,1.5,37.85,11111222 
ENP,ioos.station.NOAA.NDBC:JKYF1:1,2019-05-08T19:00:00Z,25.0530,-80.9040,1.5,37.89,11111222 
ENP,ioos.station.NOAA.NDBC:JKYF1:1,2019-05-08T20:00:00Z,25.0530,-80.9040,1.5,37.76,11111222 
ENP,ioos.station.NOAA.NDBC:JKYF1:1,2019-05-08T21:00:00Z,25.0530,-80.9040,1.5,37.66,11111222 
ENP,ioos.station.NOAA.NDBC:JKYF1:1,2019-05-08T22:00:00Z,25.0530,-80.9040,1.5,37.83,11111222 
ENP,ioos.station.NOAA.NDBC:JKYF1:1,2019-05-08T23:00:00Z,25.0530,-80.9040,1.5,37.74,11111222 
ENP,ioos.station.NOAA.NDBC:JKYF1:1,2019-05-09T00:00:00Z,25.0530,-80.9040,1.5,37.74,11111222 
ENP,ioos.station.NOAA.NDBC:JKYF1:1,2019-05-09T01:00:00Z,25.0530,-80.9040,1.5,37.9,11111222 
ENP,ioos.station.NOAA.NDBC:JKYF1:1,2019-05-09T02:00:00Z,25.0530,-80.9040,1.5,37.91,11111222 
ENP,ioos.station.NOAA.NDBC:JKYF1:1,2019-05-09T03:00:00Z,25.0530,-80.9040,1.5,37.9,11111222 
ENP,ioos.station.NOAA.NDBC:JKYF1:1,2019-05-09T04:00:00Z,25.0530,-80.9040,1.5,37.91,11111222 
ENP,ioos.station.NOAA.NDBC:JKYF1:1,2019-05-09T05:00:00Z,25.0530,-80.9040,1.5,37.97,11111222 
ENP,ioos.station.NOAA.NDBC:JKYF1:1,2019-05-09T06:00:00Z,25.0530,-80.9040,1.5,38.01,11111222 
ENP,ioos.station.NOAA.NDBC:JKYF1:1,2019-05-09T07:00:00Z,25.0530,-80.9040,1.5,38.05,11111222 
ENP,ioos.station.NOAA.NDBC:JKYF1:1,2019-05-09T08:00:00Z,25.0530,-80.9040,1.5,38.07,11111222 
ENP,ioos.station.NOAA.NDBC:JKYF1:1,2019-05-09T09:00:00Z,25.0530,-80.9040,1.5,38.1,11111222 
ENP,ioos.station.NOAA.NDBC:JKYF1:1,2019-05-09T10:00:00Z,25.0530,-80.9040,1.5,38.09,11111222 
ENP,ioos.station.NOAA.NDBC:JKYF1:1,2019-05-09T11:00:00Z,25.0530,-80.9040,1.5,38.03,11111222 
ENP,ioos.station.NOAA.NDBC:JKYF1:1,2019-05-09T12:00:00Z,25.0530,-80.9040,1.5,37.97,11111222 
ENP,ioos.station.NOAA.NDBC:JKYF1:1,2019-05-09T13:00:00Z,25.0530,-80.9040,1.5,37.96,11111222 
ENP,ioos.station.NOAA.NDBC:JKYF1:1,2019-05-09T14:00:00Z,25.0530,-80.9040,1.5,37.97,11111222 
ENP,ioos.station.NOAA.NDBC:JKYF1:1,2019-05-09T15:00:00Z,25.0530,-80.9040,1.5,37.98,11111222 
ENP,ioos.station.NOAA.NDBC:JKYF1:1,2019-05-09T16:00:00Z,25.0530,-80.9040,1.5,37.97,11111222 
ENP,ioos.station.NOAA.NDBC:JKYF1:1,2019-05-09T17:00:00Z,25.0530,-80.9040,1.5,38.0,11111222 
ENP,ioos.station.NOAA.NDBC:JKYF1:1,2019-05-09T18:00:00Z,25.0530,-80.9040,1.5,37.97,11111222 
ENP,ioos.station.NOAA.NDBC:JKYF1:1,2019-05-09T19:00:00Z,25.0530,-80.9040,1.5,37.96,11111222 
ENP,ioos.station.NOAA.NDBC:JKYF1:1,2019-05-09T20:00:00Z,25.0530,-80.9040,1.5,37.96,11111222 
ENP,ioos.station.NOAA.NDBC:JKYF1:1,2019-05-09T21:00:00Z,25.0530,-80.9040,1.5,37.85,11111222 
ENP,ioos.station.NOAA.NDBC:JKYF1:1,2019-05-09T22:00:00Z,25.0530,-80.9040,1.5,37.84,11111222 
ENP,ioos.station.NOAA.NDBC:JKYF1:1,2019-05-09T23:00:00Z,25.0530,-80.9040,1.5,37.74,11111222 
ENP,ioos.station.NOAA.NDBC:JKYF1:1,2019-05-10T00:00:00Z,25.0530,-80.9040,1.5,37.68,11111222 
ENP,ioos.station.NOAA.NDBC:JKYF1:1,2019-05-10T01:00:00Z,25.0530,-80.9040,1.5,37.62,11111222 
ENP,ioos.station.NOAA.NDBC:JKYF1:1,2019-05-10T03:00:00Z,25.0530,-80.9040,1.5,38.0,11111222 
ENP,ioos.station.NOAA.NDBC:JKYF1:1,2019-05-10T04:00:00Z,25.0530,-80.9040,1.5,37.98,11111222 
ENP,ioos.station.NOAA.NDBC:JKYF1:1,2019-05-10T05:00:00Z,25.0530,-80.9040,1.5,38.02,11111222 
ENP,ioos.station.NOAA.NDBC:JKYF1:1,2019-05-10T06:00:00Z,25.0530,-80.9040,1.5,38.06,11111222 
ENP,ioos.station.NOAA.NDBC:JKYF1:1,2019-05-10T07:00:00Z,25.0530,-80.9040,1.5,38.09,11111222 
ENP,ioos.station.NOAA.NDBC:JKYF1:1,2019-05-10T08:00:00Z,25.0530,-80.9040,1.5,38.11,11111222 
ENP,ioos.station.NOAA.NDBC:JKYF1:1,2019-05-10T09:00:00Z,25.0530,-80.9040,1.5,38.12,11111222 
ENP,ioos.station.NOAA.NDBC:JKYF1:1,2019-05-10T10:00:00Z,25.0530,-80.9040,1.5,38.09,11111222 
ENP,ioos.station.NOAA.NDBC:JKYF1:1,2019-05-10T11:00:00Z,25.0530,-80.9040,1.5,38.0,11111222 
ENP,ioos.station.NOAA.NDBC:JKYF1:1,2019-05-10T12:00:00Z,25.0530,-80.9040,1.5,37.41,11111222 
ENP,ioos.station.NOAA.NDBC:JKYF1:1,2019-05-10T13:00:00Z,25.0530,-80.9040,1.5,37.5,11111222 
ENP,ioos.station.NOAA.NDBC:JKYF1:1,2019-05-10T14:00:00Z,25.0530,-80.9040,1.5,37.53,11111222 
ENP,ioos.station.NOAA.NDBC:JKYF1:1,2019-05-10T15:00:00Z,25.0530,-80.9040,1.5,37.54,11111222 
ENP,ioos.station.NOAA.NDBC:JKYF1:1,2019-05-10T16:00:00Z,25.0530,-80.9040,1.5,37.52,11111222 
ENP,ioos.station.NOAA.NDBC:JKYF1:1,2019-05-10T17:00:00Z,25.0530,-80.9040,1.5,37.48,11111222 
ENP,ioos.station.NOAA.NDBC:JKYF1:1,2019-05-10T18:00:00Z,25.0530,-80.9040,1.5,37.47,11111222 
ENP,ioos.station.NOAA.NDBC:JKYF1:1,2019-05-10T19:00:00Z,25.0530,-80.9040,1.5,37.47,11111222 
ENP,ioos.station.NOAA.NDBC:JKYF1:1,2019-05-10T20:00:00Z,25.0530,-80.9040,1.5,37.46,11111222 
ENP,ioos.station.NOAA.NDBC:JKYF1:1,2019-05-10T21:00:00Z,25.0530,-80.9040,1.5,37.37,11111222 
ENP,ioos.station.NOAA.NDBC:JKYF1:1,2019-05-10T22:00:00Z,25.0530,-80.9040,1.5,37.51,11111222 
ENP,ioos.station.NOAA.NDBC:JKYF1:1,2019-05-10T23:00:00Z,25.0530,-80.9040,1.5,37.41,11111222 
ENP,ioos.station.NOAA.NDBC:JKYF1:1,2019-05-11T00:00:00Z,25.0530,-80.9040,1.5,37.26,11111222 
ENP,ioos.station.NOAA.NDBC:JKYF1:1,2019-05-11T01:00:00Z,25.0530,-80.9040,1.5,37.1,11111222 
ENP,ioos.station.NOAA.NDBC:JKYF1:1,2019-05-11T02:00:00Z,25.0530,-80.9040,1.5,37.18,11111222 
ENP,ioos.station.NOAA.NDBC:JKYF1:1,2019-05-11T03:00:00Z,25.0530,-80.9040,1.5,37.4,11111222 
ENP,ioos.station.NOAA.NDBC:JKYF1:1,2019-05-11T04:00:00Z,25.0530,-80.9040,1.5,37.58,11111222 
ENP,ioos.station.NOAA.NDBC:JKYF1:1,2019-05-11T05:00:00Z,25.0530,-80.9040,1.5,37.62,11111222 
ENP,ioos.station.NOAA.NDBC:JKYF1:1,2019-05-11T06:00:00Z,25.0530,-80.9040,1.5,37.67,11111222 
ENP,ioos.station.NOAA.NDBC:JKYF1:1,2019-05-11T07:00:00Z,25.0530,-80.9040,1.5,37.68,11111222 
ENP,ioos.station.NOAA.NDBC:JKYF1:1,2019-05-11T08:00:00Z,25.0530,-80.9040,1.5,37.7,11111222 
ENP,ioos.station.NOAA.NDBC:JKYF1:1,2019-05-11T09:00:00Z,25.0530,-80.9040,1.5,37.67,11111222 
ENP,ioos.station.NOAA.NDBC:JKYF1:1,2019-05-11T10:00:00Z,25.0530,-80.9040,1.5,37.58,11111222 
ENP,ioos.station.NOAA.NDBC:JKYF1:1,2019-05-11T11:00:00Z,25.0530,-80.9040,1.5,37.53,11111222 
ENP,ioos.station.NOAA.NDBC:JKYF1:1,2019-05-11T12:00:00Z,25.0530,-80.9040,1.5,37.71,11111222 
ENP,ioos.station.NOAA.NDBC:JKYF1:1,2019-05-11T13:00:00Z,25.0530,-80.9040,1.5,37.7,11111222 
ENP,ioos.station.NOAA.NDBC:JKYF1:1,2019-05-11T14:00:00Z,25.0530,-80.9040,1.5,37.7,11111222 
ENP,ioos.station.NOAA.NDBC:JKYF1:1,2019-05-11T15:00:00Z,25.0530,-80.9040,1.5,37.6,11111222 
ENP,ioos.station.NOAA.NDBC:JKYF1:1,2019-05-11T16:00:00Z,25.0530,-80.9040,1.5,37.6,11111222 
ENP,ioos.station.NOAA.NDBC:JKYF1:1,2019-05-11T17:00:00Z,25.0530,-80.9040,1.5,37.6,11111222 
ENP,ioos.station.NOAA.NDBC:JKYF1:1,2019-05-11T18:00:00Z,25.0530,-80.9040,1.5,37.6,11111222 
ENP,ioos.station.NOAA.NDBC:JKYF1:1,2019-05-11T19:00:00Z,25.0530,-80.9040,1.5,37.6,11111222 
ENP,ioos.station.NOAA.NDBC:JKYF1:1,2019-05-11T20:00:00Z,25.0530,-80.9040,1.5,37.6,11111222 
ENP,ioos.station.NOAA.NDBC:JKYF1:1,2019-05-11T21:00:00Z,25.0530,-80.9040,1.5,37.6,11111222 
ENP,ioos.station.NOAA.NDBC:JKYF1:1,2019-05-11T22:00:00Z,25.0530,-80.9040,1.5,37.6,11111222 
ENP,ioos.station.NOAA.NDBC:JKYF1:1,2019-05-11T23:00:00Z,25.0530,-80.9040,1.5,37.4,11111222 
ENP,ioos.station.NOAA.NDBC:JKYF1:1,2019-05-12T00:00:00Z,25.0530,-80.9040,1.5,37.4,11111222 
ENP,ioos.station.NOAA.NDBC:JKYF1:1,2019-05-12T01:00:00Z,25.0530,-80.9040,1.5,37.3,11111222 
ENP,ioos.station.NOAA.NDBC:JKYF1:1,2019-05-12T02:00:00Z,25.0530,-80.9040,1.5,37.2,11111222 
ENP,ioos.station.NOAA.NDBC:JKYF1:1,2019-05-12T03:00:00Z,25.0530,-80.9040,1.5,37.1,11111222 